Walla Walla, WA
on Thursday, January 31, 2013

Thursday
Previous Day Next Day
Daily Summary
 ActualAverage (KPDT)Record (KPDT)
Temperature
Mean Temperature °F 37°F  
Max Temperature 54°F 44°F 70°F (1995)
Min Temperature 45°F 30°F -15°F (1950)
Degree Days
Heating Degree Days 16 28  
Month to date heating degree days 921  
Since 1 July heating degree days 3158  
Cooling Degree Days 0 0  
Month to date cooling degree days 0  
Year to date cooling degree days 0  
Moisture
Dew Point 39°F   
Average Humidity 72    
Maximum Humidity 86    
Minimum Humidity 59    
Precipitation
Precipitation 0.02 in 0.04 in 0.85 in (1910)
Month to date precipitation 1.43  
Year to date precipitation 1.43  
Snow
Snow 0.00 in 0.10 in 3.00 in (1939)
Month to date snowfall 3.7  
Year to date snowfall 3.7  
Since 1 July snowfall 11.2  
Snow Depth in   
Wind
Wind Speed 11 mph   
Max Wind Speed 15 mph   
Max Gust Speed mph   
Visibility 10 miles   
Events Rain   

Key: T is trace of precipitation, MM is missing value
Source: NWS Daily Summary
Time(PST)TemperatureDew PointHumidity Pressure Visibility Wind DirectionWind SpeedGust SpeedPrecipitationEvents Conditions
12:53 AM 45.0°F 39.0°F 80% 30.32 in 10.0 miles South 12.7 mph - N/A   Scattered Clouds
1:53 AM 46.0°F 39.0°F 76% 30.33 in 10.0 miles South 11.5 mph - N/A   Overcast
2:53 AM 46.0°F 39.0°F 76% 30.33 in 10.0 miles South 8.1 mph - 0.00 in Rain Light Rain
3:53 AM 45.0°F 39.9°F 82% 30.33 in 10.0 miles South 9.2 mph - 0.01 in Rain Light Rain
4:53 AM 45.0°F 41.0°F 86% 30.32 in 10.0 miles South 10.4 mph - 0.00 in Rain Light Rain
5:53 AM 45.0°F 39.9°F 82% 30.31 in 10.0 miles South 13.8 mph - 0.00 in   Mostly Cloudy
6:53 AM 45.0°F 39.0°F 80% 30.32 in 10.0 miles South 11.5 mph - N/A   Mostly Cloudy
7:53 AM 45.0°F 39.0°F 80% 30.33 in 10.0 miles SSW 11.5 mph - N/A   Scattered Clouds
8:53 AM 48.0°F 39.9°F 74% 30.34 in 10.0 miles South 10.4 mph - N/A   Overcast
9:53 AM 48.9°F 39.9°F 71% 30.35 in 10.0 miles SSW 10.4 mph - N/A   Overcast
10:53 AM 50.0°F 39.9°F 68% 30.34 in 10.0 miles SW 13.8 mph - N/A   Scattered Clouds
11:53 AM 51.1°F 39.9°F 66% 30.32 in 10.0 miles SSW 15.0 mph - N/A   Overcast
12:53 PM 51.1°F 39.9°F 66% 30.31 in 10.0 miles SW 10.4 mph - N/A   Overcast
1:53 PM 54.0°F 39.9°F 59% 30.28 in 10.0 miles SSW 10.4 mph - N/A   Scattered Clouds
2:53 PM 53.1°F 39.0°F 59% 30.28 in 10.0 miles SW 9.2 mph - N/A   Partly Cloudy
3:53 PM 52.0°F 39.0°F 61% 30.27 in 10.0 miles SW 12.7 mph - N/A   Mostly Cloudy
4:53 PM 50.0°F 39.0°F 66% 30.28 in 10.0 miles SW 6.9 mph - N/A   Overcast
5:53 PM 48.0°F 39.9°F 74% 30.27 in 10.0 miles South 9.2 mph - 0.00 in   Overcast
6:53 PM 48.0°F 39.0°F 71% 30.27 in 10.0 miles South 9.2 mph - 0.00 in   Overcast
7:53 PM 46.9°F 37.9°F 71% 30.26 in 10.0 miles South 10.4 mph - 0.01 in   Overcast
8:53 PM 48.0°F 37.9°F 68% 30.26 in 10.0 miles South 13.8 mph - N/A   Mostly Cloudy
9:53 PM 45.0°F 37.9°F 76% 30.27 in 10.0 miles SSW 5.8 mph - N/A   Overcast
10:53 PM 46.9°F 37.9°F 71% 30.27 in 10.0 miles SW 11.5 mph - N/A   Overcast
11:53 PM 46.0°F 37.9°F 73% 30.28 in 10.0 miles SW 12.7 mph - N/A   Overcast
Moon Phase
Jan. 31 Feb. 03 Feb. 10 Feb. 17 Feb. 25
Sunrise:07:16 AM (PST) Moon Rise:10:25 PM (PST)1/31
Sunset:04:57 PM (PST) Moon Set:08:59 AM (PST)1/31

Copyright © 2014 The Weather Underground, Inc.